Location: Unspecified
(48.2082°N, 0.0000°E)
Time: 02:43:07
(UTC+00:00)

Tiros 1 despin weight - Pass Details

Date: 28 June 2019
Orbit: 594 x 643 km, 48.2° (Epoch: 22 July)

Event Time Altitude Azimuth Distance (km) Brightness Sun altitude
Rises 20:35:18 0° 221° (SW) 2,874 ? -4.7°
Reaches altitude 10° 20:37:47 10° 211° (SSW) 1,963 ? -5.0°
Maximum altitude 20:41:47 32° 149° (SSE) 1,043 ? -5.5°
Drops below altitude 10° 20:45:46 10° 86° (E) 1,946 ? -6.0°
Sets 20:48:13 0° 76° (ENE) 2,845 ? -6.3°
